www.pogodaiklimat.ru
Время
и дата
18:53 29.12
19:53 29.12
20:53 29.12
21:53 29.12
22:53 29.12
23:53 29.12
00:53 30.12
01:53 30.12
02:53 30.12
03:53 30.12
04:53 30.12
05:53 30.12
06:53 30.12
07:53 30.12
08:53 30.12
09:53 30.12
10:53 30.12
11:53 30.12
12:53 30.12
13:53 30.12
14:53 30.12
15:53 30.12
16:53 30.12
17:53 30.12
18:53 30.12
19:53 30.12
20:53 30.12
21:53 30.12
22:53 30.12
23:53 30.12
00:53 31.12
01:53 31.12
02:53 31.12
03:53 31.12
04:53 31.12
05:53 31.12
06:53 31.12
07:53 31.12
08:53 31.12
09:53 31.12
10:53 31.12
11:53 31.12
12:53 31.12
13:53 31.12
14:53 31.12
15:53 31.12
16:53 31.12
17:53 31.12
Ветер
(напр.,м/с)
Видим. Явления Облачность Т
(С)
Тd
(С)
f
(%)
Тe
(С)
Тes
(С)
Комфортность P
(гПа)
Po
(гПа)
Тmin
(С)
Tmax
(С)
R
(мм)
R24
(мм)
S
(см)
Ю 1 16 км 5/2 1200 м
[Ac]
+23.9 +19.4 76 +29 +29 душно 1018.2 1017.8 +23.9 +27.8
Ю 1 16 км 2/2 1200 м +23.3 +19.4 79 +30 +30 очень
душно
1018.8 1018.5
Ю 1 16 км 2/2 1230 м +23.3 +20.0 82 +30 +30 очень
душно
1019.0 1018.5
Ю 1 16 км 2/2 1350 м +22.8 +20.0 84 +29 +29 очень
душно
1019.2 1018.8
Ю 1 16 км 2/2 1350 м +22.2 +20.0 87 +28 +28 душно 1019.0 1018.8
Ю 1 16 км ясно +21.7 +20.0 90 +27 +27 душно 1018.7 1018.5
штиль 0 16 км ясно +20.6 +19.4 93 +25 +25 комфорт 1018.3 1017.8 +20.6 +23.9
штиль 0 16 км ясно +20.0 +19.4 96 +23 +23 комфорт 1018.0 1017.5
штиль 0 16 км ясно +18.9 +18.3 96 +20 +20 1017.7 1017.1
штиль 0 16 км ясно +17.2 +17.2 100 +17 +17 1017.6 1017.1
штиль 0 0 м туман ясно +17.8 +17.8 100 +18 +18 1017.8 1017.5
штиль 0 0 м туман ясно +17.2 +17.2 100 +17 +17 1018.4 1018.1
штиль 0 0 м туман 2/2 750 м +17.8 +17.8 100 +18 +18 1019.2 1018.8 +17.2 +20.6
штиль 0 16 км 5/5 570 м +18.9 +18.3 96 +20 +20 1019.9 1019.5
штиль 0 16 км 5/5 660 м +22.2 +21.1 93 +29 +29 очень
душно
1020.4 1019.8
нст 1 16 км 5/5 690 м +25.6 +22.2 82 +33 +35 очень
душно
1020.9 1020.5
нст 1 16 км 8/8 630 м +26.1 +21.7 77 +34 +35 очень
душно
1020.7 1020.2
Ю 1 16 км 5/5 840 м +28.3 +19.4 59 +34 +37 очень
душно
1019.7 1019.2
ЮВ 1 16 км 5/5 1140 м +27.2 +21.1 69 +34 +38 очень
душно
1018.5 1018.1 +17.2 +28.9
ЮВ 2 16 км 5/5 720 м +27.8 +22.2 72 +36 +39 очень
душно
1017.8 1017.5
ЮВ 3 16 км 5/5 1140 м +27.2 +21.1 69 +34 +36 очень
душно
1017.2 1016.8
ЮВ 3 16 км 5/5 1080 м +27.2 +21.7 72 +35 +36 очень
душно
1017.1 1016.8
ЮВ 3 16 км 5/2 1140 м
[Ac]
+26.7 +21.1 71 +34 +34 очень
душно
1017.2 1016.8
ЮВ 2 16 км 5/2 1200 м
[Ac]
+25.0 +21.7 82 +32 +32 очень
душно
1017.6 1017.1
Ю 1 16 км 2/2 1200 м
[Ac]
+24.4 +21.7 85 +31 +31 очень
душно
1018.0 1017.8 +24.4 +28.9
Ю 1 16 км 2/2 1320 м +23.9 +21.7 88 +31 +31 очень
душно
1018.4 1018.1
Ю 1 16 км ясно +23.9 +21.7 88 +31 +31 очень
душно
1018.8 1018.5
штиль 0 16 км 2/2 1200 м +22.8 +20.6 87 +30 +30 очень
душно
1019.3 1018.8
З 1 16 км 5/5 1080 м +22.2 +21.1 93 +29 +29 очень
душно
1019.5 1019.2
Ю 1 16 км 2/2 1050 м +22.2 +21.1 93 +29 +29 очень
душно
1019.1 1018.8
Ю 1 16 км 2/2 1200 м +22.2 +21.1 93 +29 +29 очень
душно
1018.9 1018.5 +21.7 +24.4
Ю 1 16 км ясно +21.7 +21.1 96 +28 +28 душно 1018.5 1018.1
ЮЗ 1 16 км ясно +21.7 +21.1 96 +28 +28 душно 1018.3 1017.8
З 1 16 км ясно +20.6 +20.6 100 +26 +26 душно 1018.1 1017.8
ЮЗ 1 0 м туман 2/2 1200 м +20.0 +20.0 100 +24 +24 комфорт 1018.0 1017.8
штиль 0 0 м туман 2/2 1200 м +19.4 +19.4 100 +22 +22 комфорт 1018.5 1018.1
штиль 0 0 м туман 2/2 750 м +18.3 +18.3 100 +19 +19 1019.0 1018.8 +18.3 +22.2
СЗ 1 16 км 2/2 810 м +18.9 +18.9 100 +21 +21 комфорт 1019.8 1019.5
штиль 0 16 км 2/2 900 м +23.3 +20.6 85 +31 +31 очень
душно
1020.5 1020.2
штиль 0 16 км 2/2 840 м +25.6 +20.6 74 +32 +35 очень
душно
1021.1 1020.9
нст 1 16 км 2/2 930 м +26.7 +20.6 69 +33 +37 очень
душно
1020.7 1020.5
нст 1 16 км 5/5 930 м +27.8 +19.4 60 +33 +37 очень
душно
1019.9 1019.5
ЮВ 1 16 км 5/5 1110 м +28.3 +19.4 59 +34 +39 очень
душно
1018.8 1018.5 +18.3 +28.3
ЮВ 2 16 км 5/5 1020 м +27.2 +20.6 67 +34 +37 очень
душно
1017.9 1017.5
ЮВ 2 16 км 5/5 1200 м +27.8 +20.6 65 +35 +36 очень
душно
1017.6 1017.1
ЮВ 2 16 км 2/2 1140 м +27.2 +20.6 67 +34 +36 очень
душно
1017.7 1017.5
ЮВ 2 16 км 2/2 900 м +26.1 +21.1 74 +33 +34 очень
душно
1018.0 1017.5
ЮВ 1 16 км 2/2 1200 м +25.0 +20.6 77 +31 +31 очень
душно
1018.4 1018.1
Местоположение метеостанции Palm Beach International Airport: широта 26.6851 долгота -80.0992 высота над уровнем моря 3 м.
В архиве по умолчанию представлена погода в Уэст-Палм-Биче за последние 1-2 суток. Обновление информации о фактической погоде в базе происходит ежечасно! Архивные данные за месяц целиком и за предыдущие месяцы Вы можете получить, выбрав интересующий диапазон дат из раскрывающегося списка и нажав кнопку "Ввод!".
Внимание! Архив погоды МЕТАР в базе сайта по станциям, не включенным в климатический монитор, хранится не более 60 дней. Нет смысла пытаться выбрать более раннюю дату.
*Определитесь, кто Вы:
Внимание! Время в таблицах - местное (без учета летнего времени). Для получения всемирного времени необходимо вычесть поправку, которая равна -5 ч.
Смотрите также архив погоды в соседних городах и на ближайших метеорологических станциях:
Партнеры нашего сайта:      
Пояснения к столбцам:
  • Ветер - указаны скорость ветра в м/с - средняя за 10 мин, порывы в срок и между сроками (в фигурных скобках) и направление, откуда дует ветер: С - северный,
  • СВ - северо-восточный, В - восточный, ЮВ - юго-восточный, Ю - южный, ЮЗ - юго-западный, З - западный, СЗ - северо-западный.
  • Видимость - горизонтальная дальность видимости в метрах или километрах. При видимости от 1 до 10 км при отсутствии осадков обычно наблюдается дымка, при ухудшении видимости до 1 км и менее - туман. В сухую погоду видимость может ухудшаться дымом, пылью или мглою.
  • Явления - указаны атмосферные явления, наблюдавшиеся в срок или в последний час перед сроком; фигурными скобками обозначены явления, наблюдавшиеся между сроками (за 1-3 часа до срока); квадратными скобками обозначены град или гололедные отложения с указанием их диаметра в мм.
  • Облачность - указаны через наклонную черту общая и нижняя облачность в баллах и высота нижней границы облаков в метрах; квадратными скобками обозначены формы облаков: Ci - перистые, Cs - перисто-слоистые, Cc - перисто-кучевые, Ac - высококучевые, As - высокослоистые, Sc - слоисто-кучевые, Ns - слоисто-дождевые, Cu - кучевые, Cb - кучево-дождевые. Подробнее классификацию облаков см. в Атласе облаков (PDF).
  • T - Температура воздуха - температура, измеренная на высоте 2 м над землей.
  • Td - Температура точки росы - температура, при понижении до которой содержащийся в воздухе водяной пар достигнет насыщения.
  • f - Относительная влажность воздуха - влажноcть воздуха, измеренная на высоте 2 м над землей.
  • Te - Эффективная температура - температура, которую ощущает одетый по сезону человек в тени. Характеристика душности погоды. При расчете учитывается влияние влажности воздуха и скорости ветра на теплоощущения человека.
  • Tes - Эффективная температура на солнце - температура, которую ощущает человек, с поправкой на солнечный нагрев. Характеристика знойности погоды. Зависит от высоты солнца над горизонтом, облачности и скорости ветра. Ночью, в пасмурную погоду, а также при ветре 12 м/с и более поправка равна нулю.
  • P - Атмосферное давление - приведенное к уровню моря атмосферное давление.
  • Po - Атмосферное давление - измеренное на уровне метеостанции атмосферное давление.
  • Tmin - Минимальная температура - минимум температуры воздуха на высоте 2 м над землей.
  • Tmax - Максимальная температура - максимум температуры воздуха на высоте 2 м над землей.
  • R - Количество осадков - Количество выпавших осадков за период времени, мм. При наведении курсора мыши на число - период времени, за который выпало указанное количество осадков.
  • R24 - Количество осадков - Количество выпавших осадков за 24 часа, мм.
  • S - Снежный покров - Высота снежного покрова, см. При наведении курсора мыши на число - состояние снежного покрова и степень покрытия местности в баллах.